sat.trackr.live / text

‹ back to catalog

STARLINK-33870

NORAD 63794 · 2025-091V

PAYLOAD ACTIVE UNKNOWN

§ Identity

Operator
Country
US
Launch date
2025-05-02
Launch site
AFETR
Launch vehicle
Mass (kg)
RCS (m²)

Purposes: comms

External: N2YO · Heavens-Above · Gunter

§ Orbital elements

Epoch: 2026-05-24T14:11:03.562080Z

Period
94.27 min
Inclination
43.0012°
Eccentricity
0.0000981
Mean motion
15.27590229 rev/d
Perigee alt
482.3 km
Apogee alt
483.7 km
Semi-major
6,861.2 km
B*
6.5880e-4
RAAN
343.5885°
Arg perigee
271.7118°
Mean anomaly
88.3622°
Rev number
6,051

§ Raw data

STARLINK-338701 63794U 25091V   26144.59101345  .00017916  00000+0  65880-3 0  99942 63794  43.0012 343.5885 0000981 271.7118  88.3622 15.27590229 60515

JSON: /api/v1/satellites/63794 · /tle

For live sub-satellite position, see the globe view (requires WebGL).

§ Visibility from observer

Set your observer location to see the next 7 days of passes ≥ 10°. The values pass through the URL so the page stays shareable.

No JS? Fill the form by hand. The geolocation button needs JavaScript.